N8QYG-1 Weather Reports


time (UTC)temp
C
wind
direction
speed
KPH
gust
KPH
rain 1hr
cm
rain 24hr
cm
rain mn
cm
humidity
%
barometer
mb
20260502183019 7 308 6.4 9.7 0.00 0.00 0.00 4 1014.4
20260502182018 7 288 4.8 11.3 0.00 0.00 0.00 4 1014.6
20260502181021 8 317 4.8 6.4 0.00 0.00 0.00 4 1014.7
20260502164018 7 336 3.2 4.8 0.00 0.00 0.00 4 1015.2
20260502163019 8 0 6.4 8.0 0.00 0.00 0.00 4 1015.2
20260502162018 8 297 8.0 9.7 0.00 0.00 0.00 5 1015.1
20260502161021 7 323 9.7 9.7 0.00 0.00 0.00 4 1015.2
20260502152019 7 296 3.2 4.8 0.00 0.03 0.00 4 1015.0
20260502151018 7 315 4.8 8.0 0.00 0.03 0.00 5 1015.0
20260502123018 3 309 1.6 4.8 0.00 0.03 0.00 8 1015.1
20260502122018 3 292 1.6 3.2 0.00 0.03 0.00 8 1015.0
20260502121020 2 253 4.8 4.8 0.00 0.03 0.00 8 1014.9
20260502115019 1 0 0.0 0.0 0.00 0.03 0.00 8 1014.9
20260502114018 1 0 0.0 0.0 0.00 0.03 0.00 8 1014.8
20260502113018 1 0 0.0 0.0 0.00 0.03 0.00 8 1014.8
20260502112018 1 0 0.0 0.0 0.00 0.03 0.00 8 1014.7
20260502111019 1 0 0.0 0.0 0.00 0.03 0.00 8 1014.6
20260502110019 1 0 0.0 0.0 0.00 0.03 0.00 8 1014.6
20260502105019 1 0 0.0 0.0 0.00 0.03 0.00 8 1014.5
20260502104019 1 0 0.0 0.0 0.00 0.03 0.00 8 1014.4
20260502103019 1 0 0.0 0.0 0.00 0.03 0.00 8 1014.4
20260502102018 1 0 0.0 0.0 0.00 0.03 0.00 8 1014.3
20260502101019 2 128 1.6 1.6 0.00 0.03 0.00 8 1014.2
20260502091019 2 0 0.0 0.0 0.00 0.03 0.00 8 1014.0
20260502071020 2 128 1.6 1.6 0.00 0.03 0.00 8 1013.7
20260502070019 2 0 0.0 0.0 0.00 0.03 0.00 8 1013.7
20260502065018 2 128 1.6 1.6 0.00 0.03 0.00 8 1013.7
20260502064019 3 128 1.6 3.2 0.00 0.03 0.00 8 1013.9
20260502063019 3 128 4.8 4.8 0.00 0.03 0.00 8 1013.9
20260502062019 3 0 0.0 0.0 0.00 0.03 0.00 8 1014.0
20260502061021 3 0 0.0 1.6 0.00 0.03 0.00 7 1014.2
20260502060019 3 128 1.6 1.6 0.00 0.03 0.00 7 1014.2
20260502055019 3 128 1.6 3.2 0.00 0.03 0.00 7 1014.2
20260502054019 3 107 1.6 3.2 0.00 0.03 0.00 7 1014.2
20260502053019 3 107 6.4 6.4 0.00 0.03 0.00 7 1014.2
20260502052020 3 92 8.0 8.0 0.00 0.03 0.00 7 1014.1
20260502051020 3 115 11.3 12.9 0.00 0.03 0.00 7 1014.1
20260502050019 3 95 3.2 3.2 0.00 0.03 0.00 7 1014.1
20260502045022 3 97 8.0 8.0 0.00 0.03 0.00 7 1014.0
20260502044018 4 61 6.4 8.0 0.00 0.03 0.00 7 1013.8
20260502043019 4 67 1.6 4.8 0.00 0.03 0.00 7 1013.8
20260502042019 4 42 4.8 6.4 0.00 0.03 0.00 7 1013.6
20260502041022 5 29 9.7 9.7 0.00 0.03 0.00 7 1013.5
20260502040018 5 92 4.8 8.0 0.00 0.03 0.00 6 1013.5
20260502035020 5 82 8.0 9.7 0.00 0.03 0.03 6 1013.1
20260502034019 6 324 4.8 6.4 0.00 0.03 0.03 6 1013.1
20260502033020 6 304 3.2 3.2 0.00 0.03 0.03 6 1013.1
20260502032018 6 307 4.8 4.8 0.00 0.03 0.03 6 1013.1
20260502031020 6 0 0.0 0.0 0.00 0.03 0.03 6 1013.1
20260502030019 6 9 9.7 11.3 0.00 0.03 0.03 6 1013.1
20260502025019 6 25 6.4 8.0 0.00 0.03 0.03 6 1013.0
20260502024018 6 319 8.0 11.3 0.00 0.03 0.03 6 1013.1
20260502023020 6 319 6.4 8.0 0.00 0.03 0.03 6 1013.1
20260502022020 6 317 3.2 6.4 0.00 0.03 0.03 6 1013.0
20260502021020 6 292 4.8 6.4 0.00 0.03 0.03 6 1012.8
20260502020018 6 342 6.4 9.7 0.00 0.03 0.03 6 1012.8
20260502015020 6 323 6.4 6.4 0.00 0.03 0.03 6 1012.6
20260502014019 6 343 8.0 8.0 0.00 0.03 0.03 6 1012.6
20260502013019 6 323 1.6 3.2 0.00 0.03 0.03 6 1012.6
20260502012021 6 280 1.6 1.6 0.00 0.03 0.03 6 1012.5
20260502011020 6 335 6.4 8.0 0.00 0.03 0.03 6 1012.4
20260502010019 6 328 6.4 6.4 0.00 0.03 0.03 6 1012.4
20260502005019 6 295 4.8 4.8 0.00 0.03 0.03 6 1012.3
20260502004018 6 315 1.6 3.2 0.00 0.03 0.03 6 1012.2
20260502003020 6 340 6.4 9.7 0.00 0.03 0.03 6 1012.2
20260502002020 7 311 4.8 6.4 0.00 0.03 0.03 6 1012.1
20260502001020 7 333 1.6 1.6 0.00 0.03 0.03 6 1011.9
20260502000018 7 313 3.2 4.8 0.00 0.03 0.03 6 1011.9
20260501235021 7 324 8.0 8.0 0.00 0.03 0.03 6 1011.8
20260501234020 7 294 4.8 6.4 0.00 0.03 0.03 6 1011.6
20260501233021 7 312 4.8 11.3 0.00 0.03 0.03 6 1011.6
20260501232020 7 284 3.2 8.0 0.00 0.03 0.03 5 1011.5
20260501231019 7 339 14.5 17.7 0.00 0.03 0.03 5 1011.5
20260501230020 7 339 9.7 9.7 0.00 0.03 0.03 5 1011.5
20260501225019 8 323 9.7 9.7 0.00 0.03 0.03 5 1011.5
20260501224020 8 14 12.9 12.9 0.00 0.03 0.03 5 1011.5
20260501223019 8 317 8.0 12.9 0.00 0.03 0.03 5 1011.5
20260501222018 8 283 9.7 9.7 0.00 0.03 0.03 5 1011.3
20260501221021 8 322 11.3 12.9 0.00 0.03 0.03 5 1011.2
20260501220018 8 274 3.2 4.8 0.00 0.03 0.03 5 1011.2
20260501215020 8 330 8.0 9.7 0.00 0.03 0.03 5 1011.1
20260501214020 8 346 8.0 11.3 0.00 0.03 0.03 5 1010.9
20260501213020 8 279 6.4 6.4 0.00 0.03 0.03 5 1010.9
20260501212019 8 323 6.4 11.3 0.00 0.03 0.03 5 1010.9
20260501211021 9 0 6.4 9.7 0.00 0.03 0.03 5 1010.7
20260501210021 9 292 6.4 6.4 0.00 0.03 0.03 5 1010.7
20260501205021 8 341 3.2 4.8 0.00 0.03 0.03 5 1010.8
20260501204018 8 0 12.9 12.9 0.00 0.03 0.03 5 1010.7
20260501203021 8 328 8.0 8.0 0.00 0.03 0.03 5 1010.7
20260501202020 9 351 8.0 9.7 0.00 0.03 0.03 5 1010.5
20260501201021 10 355 14.5 17.7 0.00 0.03 0.03 5 1010.3
20260501200019 10 335 6.4 8.0 0.00 0.03 0.03 5 1010.3
20260501195020 11 342 6.4 6.4 0.00 0.03 0.03 5 1010.4
20260501194019 9 302 8.0 11.3 0.00 0.03 0.03 5 1010.4
20260501193020 9 340 4.8 6.4 0.00 0.03 0.03 5 1010.4
20260501192019 10 304 8.0 8.0 0.00 0.03 0.03 5 1010.3
20260501191020 10 0 0.0 3.2 0.00 0.03 0.03 4 1010.3
20260501190020 10 355 3.2 6.4 0.00 0.03 0.03 5 1010.3
20260501185019 9 13 8.0 14.5 0.00 0.03 0.03 5 1010.2
20260501184019 10 333 4.8 4.8 0.00 0.03 0.03 5 1010.0